����������;��������(kWh)
2019-06-10 00:00;83
2019-06-10 00:15;85,45
2019-06-10 00:30;84,15
2019-06-10 00:45;81,5
2019-06-10 01:00;81,9
2019-06-10 01:15;79,9
2019-06-10 01:30;82,65
2019-06-10 01:45;80,7
2019-06-10 02:00;79,4
2019-06-10 02:15;80
2019-06-10 02:30;82,4
2019-06-10 02:45;81,8
2019-06-10 03:00;77,5
2019-06-10 03:15;76,1
2019-06-10 03:30;78,5
2019-06-10 03:45;77,15
2019-06-10 04:00;77,45
2019-06-10 04:15;77,75
2019-06-10 04:30;76,55
2019-06-10 04:45;78,75
2019-06-10 05:00;78,45
2019-06-10 05:15;78,95
2019-06-10 05:30;79,9
2019-06-10 05:45;79,45
2019-06-10 06:00;76,9
2019-06-10 06:15;73
2019-06-10 06:30;72,65
2019-06-10 06:45;73,2
2019-06-10 07:00;77,6
2019-06-10 07:15;76,6
2019-06-10 07:30;134,65
2019-06-10 07:45;139,2
2019-06-10 08:00;111,45
2019-06-10 08:15;109,6
2019-06-10 08:30;113,65
2019-06-10 08:45;127,2
2019-06-10 09:00;140,4
2019-06-10 09:15;144,5
2019-06-10 09:30;151,85
2019-06-10 09:45;158,6
2019-06-10 10:00;172,2
2019-06-10 10:15;174,65
2019-06-10 10:30;183,2
2019-06-10 10:45;193,55
2019-06-10 11:00;204,3
2019-06-10 11:15;205,8
2019-06-10 11:30;217,3
2019-06-10 11:45;215,05
2019-06-10 12:00;209,45
2019-06-10 12:15;213,05
2019-06-10 12:30;214,3
2019-06-10 12:45;213
2019-06-10 13:00;216,15
2019-06-10 13:15;219,75
2019-06-10 13:30;214,65
2019-06-10 13:45;211,3
2019-06-10 14:00;210,8
2019-06-10 14:15;200,6
2019-06-10 14:30;181,8
2019-06-10 14:45;188,2
2019-06-10 15:00;188,85
2019-06-10 15:15;176,75
2019-06-10 15:30;176,3
2019-06-10 15:45;180,6
2019-06-10 16:00;178,2
2019-06-10 16:15;168,25
2019-06-10 16:30;168,3
2019-06-10 16:45;163,6
2019-06-10 17:00;150,85
2019-06-10 17:15;148,8
2019-06-10 17:30;149,15
2019-06-10 17:45;147,05
2019-06-10 18:00;134,8
2019-06-10 18:15;144,35
2019-06-10 18:30;148,3
2019-06-10 18:45;129,35
2019-06-10 19:00;131,25
2019-06-10 19:15;127,9
2019-06-10 19:30;124,85
2019-06-10 19:45;125,3
2019-06-10 20:00;123,2
2019-06-10 20:15;118,4
2019-06-10 20:30;120,75
2019-06-10 20:45;119,6
2019-06-10 21:00;124,15
2019-06-10 21:15;125,7
2019-06-10 21:30;126,55
2019-06-10 21:45;121,6
2019-06-10 22:00;112,25
2019-06-10 22:15;102,9
2019-06-10 22:30;97,7
2019-06-10 22:45;95,85
2019-06-10 23:00;100,95
2019-06-10 23:15;97,5
2019-06-10 23:30;99,4
2019-06-10 23:45;104
2019-06-11 00:00;92,5
2019-06-11 00:15;92,75
2019-06-11 00:30;93,5
2019-06-11 00:45;92,15
2019-06-11 01:00;92,7
2019-06-11 01:15;90,4
2019-06-11 01:30;88,95
2019-06-11 01:45;86,45
2019-06-11 02:00;87,6
2019-06-11 02:15;88,4
2019-06-11 02:30;86,55
2019-06-11 02:45;85,7
2019-06-11 03:00;85,2
2019-06-11 03:15;86,4
2019-06-11 03:30;85,85
2019-06-11 03:45;81,1
2019-06-11 04:00;83,5
2019-06-11 04:15;83,4
2019-06-11 04:30;83,7
2019-06-11 04:45;84,35
2019-06-11 05:00;83,6
2019-06-11 05:15;85
2019-06-11 05:30;86,05
2019-06-11 05:45;86,85
2019-06-11 06:00;82,95
2019-06-11 06:15;80,5
2019-06-11 06:30;80
2019-06-11 06:45;79,25
2019-06-11 07:00;84,95
2019-06-11 07:15;76,7
2019-06-11 07:30;133,7
2019-06-11 07:45;132,35
2019-06-11 08:00;93,3
2019-06-11 08:15;111,7
2019-06-11 08:30;120
2019-06-11 08:45;121,2
2019-06-11 09:00;137,25
2019-06-11 09:15;154,6
2019-06-11 09:30;146,4
2019-06-11 09:45;151,55
2019-06-11 10:00;167,8
2019-06-11 10:15;166,4
2019-06-11 10:30;169,35
2019-06-11 10:45;182,2
2019-06-11 11:00;191,5
2019-06-11 11:15;194,2
2019-06-11 11:30;213,25
2019-06-11 11:45;220,3
2019-06-11 12:00;210,15
2019-06-11 12:15;204,8
2019-06-11 12:30;213,65
2019-06-11 12:45;209,8
2019-06-11 13:00;203,25
2019-06-11 13:15;217,85
2019-06-11 13:30;219,55
2019-06-11 13:45;212,6
2019-06-11 14:00;218,3
2019-06-11 14:15;217
2019-06-11 14:30;204,25
2019-06-11 14:45;206,85
2019-06-11 15:00;212,2
2019-06-11 15:15;196,2
2019-06-11 15:30;205,3
2019-06-11 15:45;202
2019-06-11 16:00;197,1
2019-06-11 16:15;192,65
2019-06-11 16:30;187,1
2019-06-11 16:45;184,15
2019-06-11 17:00;170,85
2019-06-11 17:15;171,45
2019-06-11 17:30;167,2
2019-06-11 17:45;162,2
2019-06-11 18:00;154,4
2019-06-11 18:15;158,5
2019-06-11 18:30;150,7
2019-06-11 18:45;144,05
2019-06-11 19:00;135,55
2019-06-11 19:15;130
2019-06-11 19:30;131,6
2019-06-11 19:45;129,1
2019-06-11 20:00;127,85
2019-06-11 20:15;123,55
2019-06-11 20:30;117,65
2019-06-11 20:45;116,45
2019-06-11 21:00;121,6
2019-06-11 21:15;118,6
2019-06-11 21:30;116,3
2019-06-11 21:45;108,3
2019-06-11 22:00;100,75
2019-06-11 22:15;96,55
2019-06-11 22:30;95,45
2019-06-11 22:45;95,95
2019-06-11 23:00;101,9
2019-06-11 23:15;96,45
2019-06-11 23:30;99,1
2019-06-11 23:45;101,05
2019-06-12 00:00;91,3
2019-06-12 00:15;90,6
2019-06-12 00:30;89,85
2019-06-12 00:45;91,95
2019-06-12 01:00;90,7
2019-06-12 01:15;88,95
2019-06-12 01:30;88,25
2019-06-12 01:45;86,7
2019-06-12 02:00;86,8
2019-06-12 02:15;87,9
2019-06-12 02:30;88,8
2019-06-12 02:45;89,65
2019-06-12 03:00;86,25
2019-06-12 03:15;82,5
2019-06-12 03:30;83,85
2019-06-12 03:45;85,15
2019-06-12 04:00;86,05
2019-06-12 04:15;85,1
2019-06-12 04:30;83,6
2019-06-12 04:45;83,85
2019-06-12 05:00;86,4
2019-06-12 05:15;87,5
2019-06-12 05:30;87,3
2019-06-12 05:45;85,35
2019-06-12 06:00;81,95
2019-06-12 06:15;80,65
2019-06-12 06:30;79,65
2019-06-12 06:45;80,2
2019-06-12 07:00;81,4
2019-06-12 07:15;81,75
2019-06-12 07:30;140,95
2019-06-12 07:45;137,4
2019-06-12 08:00;99,25
2019-06-12 08:15;117,05
2019-06-12 08:30;133,85
2019-06-12 08:45;138,35
2019-06-12 09:00;144,45
2019-06-12 09:15;160,25
2019-06-12 09:30;163,65
2019-06-12 09:45;173,25
2019-06-12 10:00;186,2
2019-06-12 10:15;191,35
2019-06-12 10:30;191,35
2019-06-12 10:45;193,6
2019-06-12 11:00;197,55
2019-06-12 11:15;205,95
2019-06-12 11:30;230,75
2019-06-12 11:45;232,65
2019-06-12 12:00;228,8
2019-06-12 12:15;231,25
2019-06-12 12:30;231,9
2019-06-12 12:45;229,4
2019-06-12 13:00;228,05
2019-06-12 13:15;225,8
2019-06-12 13:30;226,9
2019-06-12 13:45;220,3
2019-06-12 14:00;222,7
2019-06-12 14:15;135,65
2019-06-12 14:30;201,35
2019-06-12 14:45;199
2019-06-12 15:00;190,8
2019-06-12 15:15;189,85
2019-06-12 15:30;186,8
2019-06-12 15:45;172,85
2019-06-12 16:00;174,95
2019-06-12 16:15;181,1
2019-06-12 16:30;179,05
2019-06-12 16:45;168,5
2019-06-12 17:00;173,8
2019-06-12 17:15;168,2
2019-06-12 17:30;148,8
2019-06-12 17:45;164,55
2019-06-12 18:00;162,7
2019-06-12 18:15;148,2
2019-06-12 18:30;157,85
2019-06-12 18:45;141,7
2019-06-12 19:00;136,85
2019-06-12 19:15;138,3
2019-06-12 19:30;139,65
2019-06-12 19:45;135
2019-06-12 20:00;132,4
2019-06-12 20:15;133,2
2019-06-12 20:30;132,55
2019-06-12 20:45;131,1
2019-06-12 21:00;126,85
2019-06-12 21:15;124,2
2019-06-12 21:30;123,5
2019-06-12 21:45;119,85
2019-06-12 22:00;108,6
2019-06-12 22:15;102
2019-06-12 22:30;95,75
2019-06-12 22:45;97,15
2019-06-12 23:00;103,65
2019-06-12 23:15;98,05
2019-06-12 23:30;100,85
2019-06-12 23:45;101,8
2019-06-13 00:00;92,7
2019-06-13 00:15;91,5
2019-06-13 00:30;85,95
2019-06-13 00:45;86,4
2019-06-13 01:00;83,9
2019-06-13 01:15;84,35
2019-06-13 01:30;84,6
2019-06-13 01:45;82,15
2019-06-13 02:00;82,55
2019-06-13 02:15;83,65
2019-06-13 02:30;82,2
2019-06-13 02:45;81,15
2019-06-13 03:00;82,05
2019-06-13 03:15;84,45
2019-06-13 03:30;83,5
2019-06-13 03:45;83,5
2019-06-13 04:00;81,1
2019-06-13 04:15;84,2
2019-06-13 04:30;85,85
2019-06-13 04:45;83,85
2019-06-13 05:00;82,1
2019-06-13 05:15;80,85
2019-06-13 05:30;81,85
2019-06-13 05:45;81,4
2019-06-13 06:00;78
2019-06-13 06:15;75,1
2019-06-13 06:30;77,55
2019-06-13 06:45;79,45
2019-06-13 07:00;80,3
2019-06-13 07:15;79,85
2019-06-13 07:30;141,2
2019-06-13 07:45;144
2019-06-13 08:00;111,45
2019-06-13 08:15;130,5
2019-06-13 08:30;140
2019-06-13 08:45;144,25
2019-06-13 09:00;160,05
2019-06-13 09:15;172,9
2019-06-13 09:30;170,25
2019-06-13 09:45;202,35
2019-06-13 10:00;207,25
2019-06-13 10:15;205,2
2019-06-13 10:30;214
2019-06-13 10:45;215,85
2019-06-13 11:00;213,2
2019-06-13 11:15;215,55
2019-06-13 11:30;222,55
2019-06-13 11:45;210,9
2019-06-13 12:00;224,15
2019-06-13 12:15;213,75
2019-06-13 12:30;221,2
2019-06-13 12:45;222,95
2019-06-13 13:00;231,65
2019-06-13 13:15;232,9
2019-06-13 13:30;230,1
2019-06-13 13:45;220,5
2019-06-13 14:00;234,85
2019-06-13 14:15;220,05
2019-06-13 14:30;220
2019-06-13 14:45;226,2
2019-06-13 15:00;206,55
2019-06-13 15:15;208,9
2019-06-13 15:30;212
2019-06-13 15:45;207,05
2019-06-13 16:00;202,7
2019-06-13 16:15;199,95
2019-06-13 16:30;195,35
2019-06-13 16:45;195,25
2019-06-13 17:00;193,4
2019-06-13 17:15;186
2019-06-13 17:30;166,3
2019-06-13 17:45;174,8
2019-06-13 18:00;160,9
2019-06-13 18:15;161,9
2019-06-13 18:30;163,55
2019-06-13 18:45;137,95
2019-06-13 19:00;135,4
2019-06-13 19:15;133,9
2019-06-13 19:30;131
2019-06-13 19:45;128,05
2019-06-13 20:00;123,65
2019-06-13 20:15;120,3
2019-06-13 20:30;129,35
2019-06-13 20:45;128,5
2019-06-13 21:00;127,1
2019-06-13 21:15;124,8
2019-06-13 21:30;120,95
2019-06-13 21:45;111,4
2019-06-13 22:00;103,95
2019-06-13 22:15;100,35
2019-06-13 22:30;100,35
2019-06-13 22:45;99
2019-06-13 23:00;104,4
2019-06-13 23:15;97,85
2019-06-13 23:30;98,65
2019-06-13 23:45;100,7
2019-06-14 00:00;88,6
2019-06-14 00:15;90,35
2019-06-14 00:30;91,35
2019-06-14 00:45;88,85
2019-06-14 01:00;87,3
2019-06-14 01:15;88,15
2019-06-14 01:30;85,8
2019-06-14 01:45;83,25
2019-06-14 02:00;82,3
2019-06-14 02:15;83,85
2019-06-14 02:30;83,7
2019-06-14 02:45;81,6
2019-06-14 03:00;82,25
2019-06-14 03:15;82,45
2019-06-14 03:30;82,45
2019-06-14 03:45;80,25
2019-06-14 04:00;82,5
2019-06-14 04:15;83
2019-06-14 04:30;82,1
2019-06-14 04:45;83,3
2019-06-14 05:00;80,55
2019-06-14 05:15;82,8
2019-06-14 05:30;87,25
2019-06-14 05:45;87,1
2019-06-14 06:00;87,6
2019-06-14 06:15;83,9
2019-06-14 06:30;83,4
2019-06-14 06:45;83,7
2019-06-14 07:00;86,4
2019-06-14 07:15;89,1
2019-06-14 07:30;148,15
2019-06-14 07:45;167
2019-06-14 08:00;138,05
2019-06-14 08:15;144,85
2019-06-14 08:30;130,1
2019-06-14 08:45;140,55
2019-06-14 09:00;156
2019-06-14 09:15;167,05
2019-06-14 09:30;193,45
2019-06-14 09:45;186,2
2019-06-14 10:00;190,65
2019-06-14 10:15;202,35
2019-06-14 10:30;197,3
2019-06-14 10:45;209,9
2019-06-14 11:00;209,75
2019-06-14 11:15;208,75
2019-06-14 11:30;220,85
2019-06-14 11:45;230,55
2019-06-14 12:00;230,8
2019-06-14 12:15;231,3
2019-06-14 12:30;233
2019-06-14 12:45;233,85
2019-06-14 13:00;242,65
2019-06-14 13:15;240,8
2019-06-14 13:30;232,95
2019-06-14 13:45;231,75
2019-06-14 14:00;220,85
2019-06-14 14:15;232,35
2019-06-14 14:30;214,6
2019-06-14 14:45;210,7
2019-06-14 15:00;221,95
2019-06-14 15:15;203,75
2019-06-14 15:30;204,8
2019-06-14 15:45;212,75
2019-06-14 16:00;195,35
2019-06-14 16:15;199,65
2019-06-14 16:30;195,05
2019-06-14 16:45;172,7
2019-06-14 17:00;176,5
2019-06-14 17:15;175,55
2019-06-14 17:30;158,35
2019-06-14 17:45;168,7
2019-06-14 18:00;167,7
2019-06-14 18:15;153,35
2019-06-14 18:30;162,35
2019-06-14 18:45;147,5
2019-06-14 19:00;143,8
2019-06-14 19:15;139,6
2019-06-14 19:30;140,7
2019-06-14 19:45;144
2019-06-14 20:00;132,85
2019-06-14 20:15;132,35
2019-06-14 20:30;127,7
2019-06-14 20:45;122,8
2019-06-14 21:00;121,95
2019-06-14 21:15;121,3
2019-06-14 21:30;120,25
2019-06-14 21:45;119,75
2019-06-14 22:00;115,65
2019-06-14 22:15;110,4
2019-06-14 22:30;110,35
2019-06-14 22:45;102,9
2019-06-14 23:00;104,3
2019-06-14 23:15;99,25
2019-06-14 23:30;104,75
2019-06-14 23:45;106,7
2019-06-15 00:00;95,45
2019-06-15 00:15;0
2019-06-15 00:30;0
2019-06-15 00:45;0
2019-06-15 01:00;0
2019-06-15 01:15;0
2019-06-15 01:30;0
2019-06-15 01:45;0
2019-06-15 02:00;0
2019-06-15 02:15;0
2019-06-15 02:30;0
2019-06-15 02:45;0
2019-06-15 03:00;0
2019-06-15 03:15;0
2019-06-15 03:30;0
2019-06-15 03:45;0
2019-06-15 04:00;0
2019-06-15 04:15;0
2019-06-15 04:30;0
2019-06-15 04:45;0
2019-06-15 05:00;0
2019-06-15 05:15;0
2019-06-15 05:30;0
2019-06-15 05:45;0
2019-06-15 06:00;0
2019-06-15 06:15;0
2019-06-15 06:30;0
2019-06-15 06:45;0
2019-06-15 07:00;0
2019-06-15 07:15;0
2019-06-15 07:30;0
2019-06-15 07:45;0
2019-06-15 08:00;0
2019-06-15 08:15;0
2019-06-15 08:30;0
2019-06-15 08:45;0
2019-06-15 09:00;0
2019-06-15 09:15;0
2019-06-15 09:30;0
2019-06-15 09:45;0
2019-06-15 10:00;0
2019-06-15 10:15;0
2019-06-15 10:30;0
2019-06-15 10:45;0
2019-06-15 11:00;0
2019-06-15 11:15;0
2019-06-15 11:30;0
2019-06-15 11:45;0
2019-06-15 12:00;0
2019-06-15 12:15;0
2019-06-15 12:30;0
2019-06-15 12:45;0
2019-06-15 13:00;0
2019-06-15 13:15;0
2019-06-15 13:30;0
2019-06-15 13:45;0
2019-06-15 14:00;0
2019-06-15 14:15;0
2019-06-15 14:30;0
2019-06-15 14:45;0
2019-06-15 15:00;0
2019-06-15 15:15;0
2019-06-15 15:30;0
2019-06-15 15:45;0
2019-06-15 16:00;0
2019-06-15 16:15;0
2019-06-15 16:30;0
2019-06-15 16:45;0
2019-06-15 17:00;0
2019-06-15 17:15;0
2019-06-15 17:30;0
2019-06-15 17:45;0
2019-06-15 18:00;0
2019-06-15 18:15;0
2019-06-15 18:30;0
2019-06-15 18:45;0
2019-06-15 19:00;0
2019-06-15 19:15;0
2019-06-15 19:30;0
2019-06-15 19:45;0
2019-06-15 20:00;0
2019-06-15 20:15;0
2019-06-15 20:30;0
2019-06-15 20:45;0
2019-06-15 21:00;0
2019-06-15 21:15;0
2019-06-15 21:30;0
2019-06-15 21:45;0
2019-06-15 22:00;0
2019-06-15 22:15;0
2019-06-15 22:30;0
2019-06-15 22:45;0
2019-06-15 23:00;0
2019-06-15 23:15;0
2019-06-15 23:30;0
2019-06-15 23:45;0
2019-06-16 00:00;0
2019-06-16 00:15;0
2019-06-16 00:30;0
2019-06-16 00:45;0
2019-06-16 01:00;0
2019-06-16 01:15;0
2019-06-16 01:30;0
2019-06-16 01:45;0
2019-06-16 02:00;0
2019-06-16 02:15;0
2019-06-16 02:30;0
2019-06-16 02:45;0
2019-06-16 03:00;0
2019-06-16 03:15;0
2019-06-16 03:30;0
2019-06-16 03:45;0
2019-06-16 04:00;0
2019-06-16 04:15;0
2019-06-16 04:30;0
2019-06-16 04:45;0
2019-06-16 05:00;0
2019-06-16 05:15;0
2019-06-16 05:30;0
2019-06-16 05:45;0
2019-06-16 06:00;0
2019-06-16 06:15;0
2019-06-16 06:30;0
2019-06-16 06:45;0
2019-06-16 07:00;0
2019-06-16 07:15;0
2019-06-16 07:30;0
2019-06-16 07:45;0
2019-06-16 08:00;0
2019-06-16 08:15;0
2019-06-16 08:30;0
2019-06-16 08:45;0
2019-06-16 09:00;0
2019-06-16 09:15;0
2019-06-16 09:30;0
2019-06-16 09:45;0
2019-06-16 10:00;0
2019-06-16 10:15;0
2019-06-16 10:30;0
2019-06-16 10:45;0
2019-06-16 11:00;0
2019-06-16 11:15;0
2019-06-16 11:30;0
2019-06-16 11:45;0
2019-06-16 12:00;0
2019-06-16 12:15;0
2019-06-16 12:30;0
2019-06-16 12:45;0
2019-06-16 13:00;0
2019-06-16 13:15;0
2019-06-16 13:30;0
2019-06-16 13:45;0
2019-06-16 14:00;0
2019-06-16 14:15;0
2019-06-16 14:30;0
2019-06-16 14:45;0
2019-06-16 15:00;0
2019-06-16 15:15;0
2019-06-16 15:30;0
2019-06-16 15:45;0
2019-06-16 16:00;0
2019-06-16 16:15;0
2019-06-16 16:30;0
2019-06-16 16:45;0
2019-06-16 17:00;0
2019-06-16 17:15;0
2019-06-16 17:30;0
2019-06-16 17:45;0
2019-06-16 18:00;0
2019-06-16 18:15;0
2019-06-16 18:30;0
2019-06-16 18:45;0
2019-06-16 19:00;0
2019-06-16 19:15;0
2019-06-16 19:30;0
2019-06-16 19:45;0
2019-06-16 20:00;0
2019-06-16 20:15;0
2019-06-16 20:30;0
2019-06-16 20:45;0
2019-06-16 21:00;0
2019-06-16 21:15;0
2019-06-16 21:30;0
2019-06-16 21:45;0
2019-06-16 22:00;0
2019-06-16 22:15;0
2019-06-16 22:30;0
2019-06-16 22:45;0
2019-06-16 23:00;0
2019-06-16 23:15;0
2019-06-16 23:30;0
2019-06-16 23:45;0

